Regional Weather Roundup
Issued by NWS

Home | Current Version | Previous Version | Graphics & Text | Print | Product List | Glossary On
Versions: 1 2 3 4 5 6 7 8 9 10 11 12 13 14 15 16 17 18 19 20 21 22 23 24 25 26 27 28 29 30 31 32 33 34 35 36 37 38 39 40 41 42 43 44 45 46 47 48 49 50
000
ASUS43 KBIS 212310
RWRND

NORTH DAKOTA REGIONAL WEATHER ROUNDUP
NATIONAL WEATHER SERVICE BISMARCK ND
600 PM CDT MON MAY 21 2018

NOTE: "FAIR" INDICATES FEW OR NO CLOUDS BELOW 12,000 FEET WITH NO
SIGNIFICANT WEATHER AND/OR OBSTRUCTIONS TO VISIBILITY.


NDZ001>003-009>011-017-220000-
NORTHWEST NORTH DAKOTA

CITY           SKY/WX    TMP DP  RH WIND       PRES   REMARKS
WILLISTON      SUNNY     80  41  24 W6        29.85F
MINOT          SUNNY     80  36  20 S15G23    29.87F
MINOT AFB      SUNNY     79  39  24 S16       29.85F
$$

NDZ018>021-031>035-040>046-220000-
SOUTHWEST NORTH DAKOTA

CITY           SKY/WX    TMP DP  RH WIND       PRES   REMARKS
BISMARCK       SUNNY     74  49  41 S13       29.91F
DICKINSON      SUNNY     76  36  23 SE6       29.88S
GARRISON         N/A     75  43  31 S14       29.88F
HETTINGER ARPT SUNNY     73  47  39 SE7G18    29.91F
$$

NDZ004>008-012>016-024-026-027-054-220000-
NORTHEAST NORTH DAKOTA

CITY           SKY/WX    TMP DP  RH WIND       PRES   REMARKS
GRAND FORKS    FAIR      78  43  28 S13G18    29.92S
GRND FRKS AFB  FAIR      77  43  29 S6        29.92F
DEVILS LAKE    FAIR      74  44  34 SE9       29.93F
$$

NDZ022-023-025-028>030-036>039-047>053-220000-
SOUTHEAST NORTH DAKOTA

CITY           SKY/WX    TMP DP  RH WIND       PRES   REMARKS
FARGO          CLOUDY    71  52  50 SE9       29.95F
JAMESTOWN      PTSUNNY   73  53  49 S10       29.93F
$$




USA.gov is the U.S. government's official web portal to all federal, state and local government web resources and services.